Address 0x1546bc74abf38cb4b4846181625d78f170cb7376 4

 
Ad
Ad
Txn Hash Method
Block
From
To
Value [Txn Fee]
0x81530f8895b3e5bca986e8332404c16ff4339424218791b12a687d589a1faecbSwap193704242021-09-22 3:02:493 mins ago0x1546bc74abf38cb4b4846181625d78f170cb7376OUT 0xb20d42e335f203d4421cab57a543b29ea590e69e0 MATIC0.0098094
0x1df0b1b1e6608571c931f5096028384c7d0a54f6b5f9e075aa9358e661e13f26Swap193703122021-09-22 2:57:118 mins ago0x1546bc74abf38cb4b4846181625d78f170cb7376OUT 0xb20d42e335f203d4421cab57a543b29ea590e69e0 MATIC0.008707644
0x73a9302527386aeb0537f553ec2a6d34b21dc991d8710a8d802744f590ad58c6Transfer193702582021-09-22 2:54:2711 mins ago0x1546bc74abf38cb4b4846181625d78f170cb7376SELF0x1546bc74abf38cb4b4846181625d78f170cb73760 MATIC0.00034965
0x4a81ae68894a9861a9361101d07b45e140ba0e6733d85a0943f52de42c4b26fbSwap193701212021-09-22 2:49:0716 mins ago0x1546bc74abf38cb4b4846181625d78f170cb7376OUT 0xb20d42e335f203d4421cab57a543b29ea590e69e0 MATIC0.0115664
0x17ffe80097177bfc2dc923742aba5fa2d0b520f19e00d3290ee3ae6e05c87c19Swap193700872021-09-22 2:47:5518 mins ago0x1546bc74abf38cb4b4846181625d78f170cb7376OUT 0xb20d42e335f203d4421cab57a543b29ea590e69e0 MATIC0.000053203043
0x8a044bd46e140deaecd2328170428e052f4f3a65587d66c04b0b8375557897f6Swap193699262021-09-22 2:42:2523 mins ago0x1546bc74abf38cb4b4846181625d78f170cb7376OUT 0xb20d42e335f203d4421cab57a543b29ea590e69e0 MATIC0.00146037
0x869988b85cfd7e495ad428f3dbad3d7156bcd93ac4364678b1f0759717d301c4Swap193697012021-09-22 2:34:3931 mins ago0x1546bc74abf38cb4b4846181625d78f170cb7376OUT 0xb20d42e335f203d4421cab57a543b29ea590e69e0 MATIC0.00024346
0xf2daa4ab4cf0d9874f62e2c3d6df7cf94d5b010372a965b7396086e0d87f03edSwap193692212021-09-22 2:18:0847 mins ago0x1546bc74abf38cb4b4846181625d78f170cb7376OUT 0xb20d42e335f203d4421cab57a543b29ea590e69e0 MATIC0.000539253
0x00385afa69bbb88bc7dc14eae2a2586b3325c8f012e916336db9bdff07b6984bSwap193689932021-09-22 2:08:0857 mins ago0x1546bc74abf38cb4b4846181625d78f170cb7376OUT 0xb20d42e335f203d4421cab57a543b29ea590e69e0 MATIC0.000343994
0x12cb091d618063c11d3f2206eb92af20d6d0e6d8329c129b5db8b562043ccd7fTransfer193688872021-09-22 2:04:241 hr 1 min ago0x1546bc74abf38cb4b4846181625d78f170cb7376SELF0x1546bc74abf38cb4b4846181625d78f170cb73760 MATIC0.000025641
0x4a585e7d1fd76fac07ca1486340ac7bc12d5766735940c56e733bbaf96fd8e1bTransfer193688072021-09-22 2:01:401 hr 4 mins ago0x1546bc74abf38cb4b4846181625d78f170cb7376SELF0x1546bc74abf38cb4b4846181625d78f170cb73760 MATIC0.000025641
0xcdfb8b8d6a9085338b7867f699511fda8ce8171eafffcd9db3042f67646b792cSwap193686312021-09-22 1:53:281 hr 12 mins ago0x1546bc74abf38cb4b4846181625d78f170cb7376OUT 0xb20d42e335f203d4421cab57a543b29ea590e69e0 MATIC0.000266133861
0x1f851c75809e412e0840dac43c286b5b5335a6fb22344cced59b72dfa1282b88Swap193685732021-09-22 1:51:241 hr 14 mins ago0x1546bc74abf38cb4b4846181625d78f170cb7376OUT 0xb20d42e335f203d4421cab57a543b29ea590e69e0 MATIC0.00080608
0xe56b103600d1eef6e85865b2114a318236d012a0f485abdb3cdaedce85cc8eabSwap193683122021-09-22 1:42:261 hr 23 mins ago0x1546bc74abf38cb4b4846181625d78f170cb7376OUT 0xb20d42e335f203d4421cab57a543b29ea590e69e0 MATIC0.003013058
0x6a7f86238cceddb94d1c600848281cc55332a6200ea365fe7c90cf1dc90a5c59Swap193679802021-09-22 1:31:021 hr 34 mins ago0x1546bc74abf38cb4b4846181625d78f170cb7376OUT 0xb20d42e335f203d4421cab57a543b29ea590e69e0 MATIC0.000610575
0x69473ca3c42e46ea66395c212a84550cf7ca9280b9a996aa7a31185ee3e0f669Transfer193678372021-09-22 1:25:001 hr 41 mins ago0x1546bc74abf38cb4b4846181625d78f170cb7376SELF0x1546bc74abf38cb4b4846181625d78f170cb73760 MATIC0.000040201977
0x4a953c80cbefd53e7e1bc8f5b223e1e763d2dce1237aee11b010a7aff8286692Transfer193674562021-09-22 1:10:461 hr 55 mins ago0x1546bc74abf38cb4b4846181625d78f170cb7376SELF0x1546bc74abf38cb4b4846181625d78f170cb73760 MATIC0.00034965
0xa4427d63d5d244e917ca147976a33b186a65624e20b9c81ae4124fdafc21aba0Swap193674012021-09-22 1:08:521 hr 57 mins ago0x1546bc74abf38cb4b4846181625d78f170cb7376OUT 0xb20d42e335f203d4421cab57a543b29ea590e69e0 MATIC0.13918510573
0x5097d816e5c1cac91d652139d7f30049fad53d52bf17b559e104e8148c4436fcSwap193673722021-09-22 1:07:541 hr 58 mins ago0x1546bc74abf38cb4b4846181625d78f170cb7376OUT 0xb20d42e335f203d4421cab57a543b29ea590e69e0 MATIC0.000053628652
0x000b8d67c2524c5ec0b46c9d152a52fe1e875283b7434f7274e24a2b0a567c61Swap193673092021-09-22 1:05:442 hrs ago0x1546bc74abf38cb4b4846181625d78f170cb7376OUT 0xb20d42e335f203d4421cab57a543b29ea590e69e0 MATIC0.000458890751
0x7b517b8db46323c1629fdcc9dc0babb4abda801564d0dfbbb4ae8a281dcb3660Swap193671222021-09-22 0:57:582 hrs 8 mins ago0x1546bc74abf38cb4b4846181625d78f170cb7376OUT 0xb20d42e335f203d4421cab57a543b29ea590e69e0 MATIC0.000065348107
0xe396445f9dc005876070963614062d835c7f3eb53a158eeeb956c2f2bc827bd7Swap193666872021-09-22 0:38:432 hrs 27 mins ago0x1546bc74abf38cb4b4846181625d78f170cb7376OUT 0xb20d42e335f203d4421cab57a543b29ea590e69e0 MATIC0.0000895548
0x18b9dee36724e1db1f552ee1ad50f32a6d67d019c4d2430063c0f3bc08e62638Swap193666062021-09-22 0:35:572 hrs 30 mins ago0x1546bc74abf38cb4b4846181625d78f170cb7376OUT 0xb20d42e335f203d4421cab57a543b29ea590e69e0 MATIC0.000391655362
0xeabd4e2aedf81daa3a7f5f37c1cb824f154fc97cfacd6658f5a0c70e09be4255Swap193663892021-09-22 0:28:272 hrs 37 mins ago0x1546bc74abf38cb4b4846181625d78f170cb7376OUT 0xb20d42e335f203d4421cab57a543b29ea590e69e0 MATIC0.00214972
0xe4c73019951a14ab8dfcd384de663101160bc0a753e030f4b8a4392f071bfd8dSwap193663172021-09-22 0:25:592 hrs 40 mins ago0x1546bc74abf38cb4b4846181625d78f170cb7376OUT 0xb20d42e335f203d4421cab57a543b29ea590e69e0 MATIC0.0004069025
[ Download CSV Export 
Parent Txn Hash Block From To Value
Loading

Contract Name:
0 MATIC

Compiler Version
0

Optimization Enabled:
0 MATIC

Other Settings:
-NA-
Block Transaction Gas Used Reward
Age Block Fee Address BC Fee Address Voting Power Jailed Incoming
Block Uncle Number Difficulty Gas Used Reward
Loading
Loading
Make sure to use the "Vote Down" button for any spammy posts, and the "Vote Up" for interesting conversations.